sat.trackr.live / text

‹ back to catalog

STARLINK-37186

NORAD 68617 · 2026-073R

PAYLOAD ACTIVE UNKNOWN

§ Identity

Operator
Country
US
Launch date
2026-04-07
Launch site
AFWTR
Launch vehicle
Mass (kg)
RCS (m²)

Purposes: comms

External: N2YO · Heavens-Above · Gunter

§ Orbital elements

Epoch: 2026-09-20T00:31:20.522784Z

Period
93.91 min
Inclination
97.2857°
Eccentricity
0.0001123
Mean motion
15.33457554 rev/d
Perigee alt
464.7 km
Apogee alt
466.3 km
Semi-major
6,843.6 km
B*
3.7188e-4
RAAN
100.9914°
Arg perigee
102.4873°
Mean anomaly
257.6495°
Rev number
2,566

§ Raw data

STARLINK-371861 68617U 26073R   26263.02176531  .00011954  00000+0  37188-3 0  99992 68617  97.2857 100.9914 0001123 102.4873 257.6495 15.33457554 25663

JSON: /api/v1/satellites/68617 · /tle

For live sub-satellite position, see the globe view (requires WebGL).

§ Visibility from observer

Set your observer location to see the next 7 days of passes ≥ 10°. The values pass through the URL so the page stays shareable.

No JS? Fill the form by hand. The geolocation button needs JavaScript.